AVA143 SVMI-SKBO

Flight info

Callsign AVA143
Flight time 1h 30m
Altitude 36000
Route MARES1 MARES DCT PBL UP533 KIKAS UW44 PUKEN DCT DOPLO DOPLO4E
Aircraft A320/M-SDE3FGHIRWY/LB1

Departure

Time 2025-10-04 21:34
Airport Maiquetía Simón Bolívar International Airport (SVMI)

Arrival

Time 2025-10-04 23:05
Airport El Dorado International Airport (SKBO)
Time Latitude Longitude Altitude Speed Heading
2025-10-04 21:12 10.59809 -67.00780 235 ft 0 kts 178°
2025-10-04 21:25 10.59858 -67.00781 233 ft 3 kts 178°
2025-10-04 21:25 10.59896 -67.00780 233 ft 3 kts 209°
2025-10-04 21:26 10.59912 -67.00750 232 ft 2 kts 268°
2025-10-04 21:28 10.59908 -67.00878 235 ft 12 kts 268°
2025-10-04 21:28 10.59904 -67.01019 237 ft 12 kts 269°
2025-10-04 21:28 10.59900 -67.01125 239 ft 16 kts 268°
2025-10-04 21:29 10.59985 -67.01238 241 ft 10 kts 352°
2025-10-04 21:29 10.60096 -67.01244 241 ft 7 kts 357°
2025-10-04 21:30 10.60197 -67.01243 238 ft 8 kts 19°
2025-10-04 21:30 10.60214 -67.01196 236 ft 0 kts 86°
2025-10-04 21:32 10.60230 -67.00727 222 ft 97 kts 88°
2025-10-04 21:33 10.60290 -66.98700 694 ft 163 kts 87°
2025-10-04 21:33 10.61479 -66.96796 1900 ft 185 kts 25°
2025-10-04 21:34 10.64077 -66.97495 2408 ft 233 kts 304°
2025-10-04 21:34 10.65081 -67.00930 3158 ft 272 kts 279°
2025-10-04 21:35 10.67054 -67.06341 5488 ft 282 kts 307°
2025-10-04 21:36 10.69031 -67.09777 6963 ft 287 kts 279°
2025-10-04 21:36 10.68600 -67.13798 8420 ft 291 kts 256°
2025-10-04 21:36 10.68163 -67.15818 9135 ft 294 kts 256°
2025-10-04 21:37 10.67272 -67.19936 10517 ft 301 kts 257°
2025-10-04 21:37 10.66323 -67.24348 10930 ft 344 kts 257°
2025-10-04 21:38 10.64853 -67.29108 11889 ft 360 kts 236°
2025-10-04 21:38 10.61708 -67.33114 13106 ft 366 kts 229°
2025-10-04 21:39 10.56737 -67.39129 14845 ft 375 kts 229°
2025-10-04 21:40 10.53352 -67.43232 15968 ft 382 kts 230°
2025-10-04 21:40 10.51644 -67.45308 16505 ft 385 kts 230°
2025-10-04 21:40 10.48186 -67.49508 17533 ft 390 kts 230°
2025-10-04 21:41 10.46440 -67.51625 18041 ft 392 kts 230°
2025-10-04 21:41 10.41124 -67.58083 19432 ft 401 kts 230°
2025-10-04 21:42 10.37658 -67.62290 20262 ft 406 kts 230°
2025-10-04 21:42 10.34001 -67.66725 21092 ft 412 kts 229°
2025-10-04 21:43 10.28431 -67.73484 22267 ft 420 kts 229°
2025-10-04 21:43 10.26554 -67.75759 22636 ft 422 kts 229°
2025-10-04 21:44 10.22755 -67.80358 23349 ft 427 kts 229°
2025-10-04 21:44 10.18917 -67.85009 24034 ft 432 kts 229°
2025-10-04 21:45 10.15163 -67.89797 24720 ft 435 kts 232°
2025-10-04 21:46 10.04034 -68.04665 26638 ft 445 kts 232°
2025-10-04 21:48 9.88381 -68.24513 28886 ft 457 kts 219°
2025-10-04 21:50 9.67850 -68.40316 30749 ft 468 kts 218°
2025-10-04 21:52 9.50101 -68.58896 33162 ft 459 kts 235°
2025-10-04 21:54 9.35260 -68.79722 35371 ft 453 kts 235°
2025-10-04 21:56 9.20306 -69.00253 37043 ft 451 kts 234°
2025-10-04 21:58 9.05572 -69.20433 37931 ft 445 kts 234°
2025-10-04 22:00 8.90506 -69.41029 37926 ft 464 kts 234°
2025-10-04 22:02 8.75115 -69.62026 37929 ft 467 kts 234°
2025-10-04 22:04 8.59595 -69.83156 37926 ft 469 kts 234°
2025-10-04 22:06 8.45962 -70.01700 37921 ft 471 kts 233°
2025-10-04 22:08 8.28382 -70.25595 37925 ft 472 kts 233°
2025-10-04 22:10 8.15310 -70.43325 37927 ft 473 kts 233°
2025-10-04 22:12 7.97639 -70.67275 37919 ft 473 kts 233°
2025-10-04 22:14 7.83864 -70.85906 37914 ft 473 kts 234°
2025-10-04 22:16 7.66164 -71.09826 37918 ft 474 kts 234°
2025-10-04 22:18 7.52344 -71.28458 37895 ft 476 kts 234°
2025-10-04 22:20 7.34437 -71.52590 37912 ft 478 kts 234°
2025-10-04 22:22 7.20501 -71.71344 37912 ft 478 kts 234°
2025-10-04 22:24 7.02521 -71.95509 37915 ft 479 kts 234°
2025-10-04 22:26 6.86062 -72.16657 37916 ft 479 kts 232°
2025-10-04 22:28 6.69620 -72.37757 37939 ft 480 kts 232°
2025-10-04 22:30 6.55164 -72.56274 37977 ft 481 kts 232°
2025-10-04 22:32 6.38655 -72.77385 37982 ft 479 kts 232°
2025-10-04 22:34 6.22171 -72.98394 37990 ft 478 kts 232°
2025-10-04 22:36 6.05651 -73.19354 38006 ft 477 kts 232°
2025-10-04 22:38 5.89175 -73.40238 37996 ft 477 kts 232°
2025-10-04 22:40 5.69706 -73.57286 34782 ft 464 kts 217°
2025-10-04 22:42 5.49157 -73.72530 29828 ft 445 kts 217°
2025-10-04 22:44 5.36890 -73.92168 25725 ft 410 kts 250°
2025-10-04 22:45 5.34151 -74.00157 24297 ft 405 kts 250°
2025-10-04 22:45 5.32335 -74.05450 23185 ft 393 kts 250°
2025-10-04 22:46 5.30579 -74.10592 22063 ft 386 kts 250°
2025-10-04 22:47 5.27972 -74.18201 20472 ft 384 kts 250°
2025-10-04 22:47 5.26249 -74.23238 19275 ft 376 kts 249°
2025-10-04 22:48 5.24567 -74.28142 17991 ft 359 kts 249°
2025-10-04 22:48 5.23809 -74.30478 17831 ft 347 kts 254°
2025-10-04 22:48 5.23513 -74.35285 17802 ft 346 kts 266°
2025-10-04 22:49 5.21593 -74.39451 17325 ft 331 kts 219°
2025-10-04 22:49 5.17604 -74.41475 16823 ft 321 kts 187°
2025-10-04 22:50 5.13167 -74.41610 16325 ft 319 kts 178°
2025-10-04 22:51 5.06546 -74.41591 15576 ft 315 kts 178°
2025-10-04 22:51 5.02173 -74.41580 15074 ft 313 kts 178°
2025-10-04 22:51 5.00139 -74.41581 14837 ft 312 kts 178°
2025-10-04 22:52 4.95815 -74.41582 14784 ft 305 kts 178°
2025-10-04 22:52 4.92411 -74.41542 14800 ft 288 kts 172°
2025-10-04 22:53 4.88093 -74.39931 14402 ft 283 kts 151°
2025-10-04 22:53 4.85209 -74.38432 13986 ft 282 kts 152°
2025-10-04 22:54 4.81777 -74.36659 13581 ft 277 kts 152°
2025-10-04 22:54 4.78449 -74.34944 13602 ft 262 kts 152°
2025-10-04 22:55 4.75255 -74.33191 13648 ft 261 kts 148°
2025-10-04 22:55 4.72139 -74.31293 13659 ft 262 kts 148°
2025-10-04 22:56 4.69044 -74.29399 13655 ft 252 kts 148°
2025-10-04 22:56 4.66520 -74.27326 13652 ft 214 kts 137°
2025-10-04 22:57 4.64409 -74.25398 13657 ft 206 kts 137°
2025-10-04 22:57 4.62496 -74.23287 13447 ft 203 kts 125°
2025-10-04 22:58 4.60954 -74.21045 12903 ft 191 kts 124°
2025-10-04 22:58 4.59514 -74.18949 12423 ft 187 kts 124°
2025-10-04 22:59 4.58059 -74.16748 11918 ft 190 kts 116°
2025-10-04 22:59 4.57563 -74.14184 11412 ft 192 kts 87°
2025-10-04 23:00 4.58400 -74.11640 10893 ft 196 kts 57°
2025-10-04 23:00 4.60285 -74.09909 10409 ft 177 kts 26°
2025-10-04 23:01 4.62552 -74.09164 9966 ft 170 kts 12°
2025-10-04 23:01 4.64838 -74.08671 9525 ft 165 kts 355°
2025-10-04 23:02 4.65949 -74.08887 9321 ft 161 kts 335°
2025-10-04 23:02 4.67611 -74.10292 8933 ft 158 kts 304°
2025-10-04 23:03 4.69587 -74.12887 8372 ft 145 kts 305°
2025-10-04 23:03 4.70458 -74.14041 8365 ft 55 kts 307°
2025-10-04 23:04 4.70611 -74.14330 8366 ft 6 kts 174°
2025-10-04 23:04 4.70510 -74.14318 8366 ft 0 kts 172°
2025-10-04 23:07 4.70367 -74.14249 8366 ft 7 kts 127°
2025-10-04 23:07 4.70311 -74.14175 8366 ft 9 kts 127°
2025-10-04 23:08 4.70199 -74.14026 8366 ft 16 kts 127°
2025-10-04 23:08 4.70058 -74.13841 8366 ft 17 kts 128°
2025-10-04 23:09 4.69911 -74.13646 8366 ft 17 kts 127°
2025-10-04 23:09 4.69834 -74.13587 8366 ft 13 kts 194°
2025-10-04 23:10 4.69708 -74.13650 8366 ft 8 kts 216°
2025-10-04 23:10 4.69673 -74.13682 8366 ft 1 kts 222°
2025-10-04 23:11 4.69670 -74.13684 8366 ft 0 kts 224°